Wind_Speed
23 23 22 22 22 22 21 21 21 21 21 20 19 18 18 18 17 17 17 17 18 18 19 19 19 19 20 20 21 22 22 23 24 24 25 26 27 28 29 30 30 31 32 34
24 23 23 23 22 22 22 22 22 23 23 21 20 18 18 18 17 17 17 18 18 18 19 19 19 20 21 21 22 22 23 24 25 26 27 28 29 30 31 32 33 34 35 36
24 23 24 23 23 23 23 23 24 24 23 23 21 18 19 19 18 17 18 18 18 19 19 19 20 21 21 22 23 24 24 25 26 28 29 30 31 32 33 34 35 37 38 39
26 25 25 24 24 24 24 25 26 25 24 23 22 20 18 20 19 18 18 19 19 19 20 20 21 22 22 23 24 25 26 27 28 30 31 32 33 34 35 36 38 39 40 42
26 26 26 25 25 25 25 26 27 26 25 24 23 23 17 20 19 19 19 19 19 20 20 21 22 23 24 25 26 27 28 29 30 32 33 34 35 36 37 39 40 41 43 44
27 27 26 26 26 26 26 27 28 28 27 25 24 24 18 19 20 20 20 20 21 21 21 22 23 24 25 26 27 28 30 31 32 34 35 36 37 38 39 41 42 44 45 46
28 27 26 26 26 26 26 27 28 29 28 26 25 25 20 20 21 21 21 21 22 22 22 23 24 25 27 28 29 31 32 33 34 35 36 38 39 40 42 43 44 46 47 48
28 27 26 26 27 27 27 27 28 29 28 26 26 25 22 21 22 22 22 23 23 23 24 24 26 27 28 30 31 33 34 35 36 37 38 40 41 43 44 46 47 48 49 50
28 27 27 26 27 27 27 28 29 30 29 28 27 25 23 22 23 24 24 24 24 24 25 26 28 29 30 31 33 34 36 37 38 39 40 42 44 45 46 47 49 50 52 53
28 28 27 27 27 28 29 29 29 30 30 30 27 25 25 24 25 25 25 25 25 26 27 28 30 31 32 33 35 36 37 38 40 41 43 45 46 47 48 50 51 52 54 56
29 30 28 28 28 28 29 29 29 30 31 31 30 26 25 26 27 27 27 27 27 28 29 30 32 33 34 35 36 38 39 40 42 43 45 47 48 49 51 52 54 55 57 59
30 31 29 28 28 29 30 29 29 30 30 32 32 27 25 28 29 29 29 29 29 30 31 32 33 34 36 37 38 39 41 42 44 46 47 49 50 52 53 55 56 58 60 61
32 32 30 29 29 29 29 28 29 31 32 32 32 28 27 29 30 31 31 31 31 32 33 34 35 36 37 39 40 41 43 44 46 48 49 51 53 54 56 57 59 61 62 63
33 33 31 29 29 29 29 29 30 32 33 33 31 28 27 30 32 33 32 32 33 33 34 36 37 38 39 41 42 43 45 47 48 50 51 53 55 57 58 60 61 63 64 66
32 31 30 30 30 30 30 29 30 31 31 33 30 29 27 31 34 34 34 33 34 35 36 37 38 40 41 42 44 45 47 48 50 52 54 55 57 59 60 62 63 65 66 67
30 30 30 30 30 32 31 29 29 30 31 32 32 29 29 33 34 34 34 35 35 36 37 38 40 41 43 44 45 47 48 50 52 54 56 57 59 60 62 63 65 66 67 68
31 30 31 30 30 33 32 28 29 31 31 32 32 30 31 33 34 34 35 36 37 37 38 40 41 43 44 46 47 48 50 52 54 56 57 59 60 62 63 65 66 67 68 70
31 32 33 33 33 35 30 29 30 31 31 32 32 32 32 34 34 35 35 37 38 39 40 41 43 44 46 47 49 50 52 54 56 57 59 60 62 63 65 66 68 69 70 72
32 33 34 35 35 35 31 30 31 32 32 31 33 33 34 34 35 35 37 38 39 41 42 43 44 46 47 49 50 52 54 55 57 59 60 62 64 65 67 68 69 71 72 73
33 34 35 35 36 36 30 30 32 35 34 32 34 35 35 36 36 37 38 40 41 42 43 44 46 47 49 50 52 53 55 56 58 60 62 64 65 67 68 69 71 73 74 76
33 34 35 35 37 36 32 32 34 35 35 35 35 36 36 37 38 39 40 41 42 43 45 46 48 49 50 52 53 54 56 58 60 61 63 65 66 68 70 71 73 75 76 77
34 35 36 36 37 35 34 35 36 36 36 37 37 37 38 39 40 41 42 43 44 45 46 48 49 50 52 53 54 56 58 60 61 63 65 66 68 70 72 74 75 77 78 79
34 35 36 37 36 35 36 37 37 38 38 38 38 39 39 40 41 42 43 45 46 47 48 49 50 51 52 54 56 58 60 61 63 64 66 68 69 71 74 76 77 78 80 80
34 35 36 36 35 36 37 38 39 39 39 40 40 41 41 42 43 44 45 47 48 48 49 50 51 52 54 56 58 60 61 63 65 66 68 69 71 74 76 78 79 80 80 80
35 36 36 37 36 37 38 38 39 39 40 41 42 43 44 45 45 46 47 48 48 49 50 51 52 54 56 58 60 61 63 65 67 68 70 72 74 77 78 79 80 80 79 79
35 36 37 37 37 38 37 38 40 41 41 42 43 45 45 46 47 47 48 48 49 50 51 53 54 56 58 59 61 63 66 68 69 71 73 75 77 78 79 80 79 78 78 77
Wind_Direction
251 253 256 258 258 259 261 262 264 265 266 266 267 268 272 275 277 277 279 281 283 286 289 291 293 294 296 297 298 299 298 298 298 297 296 295 295 295 294 293 292 291 290 289
251 253 255 256 258 259 261 263 264 264 267 267 266 268 273 275 276 276 277 279 281 284 287 289 292 294 295 296 297 298 298 298 298 298 297 297 296 295 295 294 293 292 291 291
250 251 252 254 257 258 259 262 264 265 267 268 268 269 273 274 276 276 277 279 281 283 285 288 291 293 294 295 297 297 298 298 298 298 298 297 296 295 294 294 293 293 293 293
247 248 251 254 257 258 259 262 264 265 266 269 271 271 272 275 276 275 276 278 280 282 285 288 290 292 293 295 296 297 298 298 298 298 297 297 296 295 295 294 294 294 294 293
246 247 251 254 257 258 259 262 263 264 266 268 271 273 272 275 274 274 276 278 280 282 285 288 290 291 293 294 296 297 298 298 298 297 297 297 296 296 295 295 294 294 294 293
245 246 249 252 255 257 258 260 263 265 267 268 269 274 273 272 273 275 277 279 281 283 285 288 290 291 293 294 295 296 297 298 298 297 297 297 296 296 296 295 295 295 294 294
246 248 250 252 255 257 258 260 264 266 267 269 270 271 273 272 272 274 277 280 281 284 286 288 290 292 293 294 295 297 297 298 298 298 297 297 297 297 297 296 296 295 295 295
246 247 251 253 254 256 257 259 263 267 268 268 269 271 273 274 274 276 278 280 282 285 288 289 290 292 293 295 296 296 297 298 298 298 298 298 298 298 298 298 297 297 296 296
247 248 251 252 252 254 256 259 262 264 267 268 268 271 273 274 275 277 278 280 283 286 289 290 291 293 294 295 296 296 297 298 298 298 298 299 299 299 299 299 298 298 297 297
248 250 249 251 253 255 257 258 260 263 267 268 269 271 275 275 276 277 279 282 285 288 290 291 292 293 294 295 296 297 298 298 298 299 299 299 299 300 300 300 300 299 299 299
249 250 250 251 252 255 256 257 260 263 266 269 271 272 276 278 278 279 281 284 287 289 290 291 292 294 295 296 297 298 298 298 299 299 300 300 300 300 300 300 301 301 301 300
249 251 251 252 252 253 255 257 259 263 267 269 272 275 277 278 279 280 283 285 287 288 290 291 292 294 295 297 297 298 298 299 299 300 300 301 301 301 301 301 302 302 302 301
249 251 253 252 253 254 256 257 260 263 265 268 272 277 278 278 279 281 283 285 287 289 289 291 292 294 295 296 297 298 299 299 300 301 301 301 301 302 302 302 302 302 302 303
248 251 253 256 257 255 254 255 258 262 265 268 272 275 276 278 279 281 284 286 287 288 290 292 293 294 295 296 297 298 299 300 301 301 302 302 302 302 302 303 303 303 303 303
248 251 253 255 256 256 255 256 259 262 267 270 273 274 277 277 280 283 285 287 288 289 291 292 294 295 296 297 298 299 300 300 301 301 302 302 302 303 303 304 304 304 304 304
249 251 253 254 255 256 256 257 260 263 267 271 273 275 276 277 280 284 286 287 288 290 291 293 294 295 296 298 299 299 300 301 301 302 302 303 303 304 304 304 305 305 305 305
249 251 252 253 255 257 258 260 261 264 267 270 274 277 276 278 281 284 285 287 289 290 292 293 295 296 297 298 299 300 300 301 302 302 303 303 304 304 305 305 305 305 305 306
248 250 252 253 254 256 262 262 263 265 267 271 274 277 279 280 282 284 285 287 289 291 293 294 296 297 298 299 300 300 301 302 302 303 303 304 304 305 305 305 306 306 306 307
249 251 253 255 257 259 261 264 265 266 267 271 275 277 280 281 283 284 286 288 290 291 293 295 296 297 298 299 300 301 301 302 303 303 304 304 305 305 306 306 307 307 307 308
249 250 253 257 260 263 264 264 265 267 269 271 274 277 280 282 284 286 287 289 291 292 294 295 296 298 299 300 301 301 302 303 303 304 305 305 306 306 307 307 307 308 308 309
249 252 255 258 262 265 267 267 267 269 273 274 276 278 281 283 285 287 288 290 292 293 294 295 297 298 299 300 301 302 303 303 304 305 306 307 307 307 308 308 309 309 309 309
250 253 256 259 263 268 269 270 271 273 274 276 278 281 283 285 286 288 289 291 292 294 295 296 298 299 300 301 302 303 303 304 305 306 307 307 308 308 309 309 310 310 310 310
251 254 256 259 264 267 269 271 273 275 276 279 281 283 284 286 287 289 291 292 294 295 296 297 298 299 300 301 303 304 304 305 306 307 308 308 309 309 310 310 311 311 311 310
252 254 257 260 263 266 269 272 274 276 278 280 281 283 286 287 289 290 292 294 295 296 297 298 299 300 301 302 304 305 306 307 308 308 309 309 310 310 311 311 311 311 311 311
253 255 259 262 265 267 270 273 275 277 279 281 283 286 288 289 290 292 293 295 296 297 297 298 300 301 302 303 305 306 307 308 309 309 310 310 311 311 312 312 312 312 312 311
255 258 261 264 265 267 270 273 276 278 280 283 285 287 288 290 291 293 294 295 296 297 298 299 301 302 303 304 305 306 308 309 310 310 311 311 312 312 312 312 312 312 312 311
Height
5835 5838 5839 5839 5840 5840 5841 5841 5841 5841 5841 5841 5840 5840 5839 5838 5838 5836 5835 5834 5832 5831 5829 5827 5825 5824 5822 5820 5818 5816 5814 5812 5810 5808 5806 5803 5801 5798 5796 5793 5790 5788 5785 5782
5831 5833 5834 5834 5835 5835 5836 5836 5836 5836 5835 5835 5836 5836 5834 5833 5833 5832 5831 5829 5828 5826 5824 5822 5821 5819 5817 5815 5813 5811 5809 5807 5804 5802 5799 5797 5794 5792 5789 5786 5783 5780 5777 5774
5825 5828 5828 5829 5829 5830 5831 5831 5831 5831 5830 5830 5830 5831 5830 5828 5828 5827 5826 5824 5823 5821 5820 5818 5816 5814 5812 5810 5808 5806 5803 5801 5798 5796 5793 5790 5787 5784 5781 5778 5775 5772 5768 5765
5819 5821 5822 5823 5824 5825 5825 5825 5825 5825 5825 5825 5825 5825 5826 5823 5823 5822 5821 5819 5818 5816 5814 5812 5810 5809 5806 5804 5802 5800 5797 5795 5792 5789 5786 5783 5780 5777 5774 5770 5767 5763 5759 5755
5814 5816 5817 5818 5819 5819 5820 5819 5819 5819 5819 5820 5819 5819 5822 5819 5817 5817 5816 5814 5813 5811 5809 5807 5805 5803 5801 5798 5796 5793 5791 5788 5785 5782 5779 5775 5772 5769 5765 5762 5758 5754 5750 5745
5808 5809 5811 5812 5813 5813 5814 5814 5813 5813 5813 5815 5814 5813 5816 5814 5812 5811 5810 5809 5807 5805 5803 5801 5799 5797 5795 5792 5789 5787 5784 5781 5778 5774 5771 5767 5764 5760 5756 5752 5748 5744 5740 5735
5801 5803 5805 5806 5807 5808 5808 5809 5808 5807 5807 5809 5808 5807 5810 5808 5807 5805 5805 5803 5801 5799 5797 5795 5793 5791 5788 5785 5782 5779 5776 5773 5769 5766 5762 5758 5755 5751 5747 5742 5738 5734 5729 5724
5795 5797 5799 5800 5801 5802 5802 5803 5803 5802 5802 5802 5801 5801 5804 5803 5800 5799 5798 5797 5795 5793 5791 5789 5786 5784 5781 5778 5775 5772 5768 5765 5761 5757 5753 5749 5745 5741 5736 5731 5727 5722 5717 5712
5788 5791 5793 5794 5794 5795 5796 5796 5796 5795 5794 5795 5796 5796 5797 5796 5794 5793 5792 5790 5788 5786 5784 5782 5779 5776 5773 5770 5767 5763 5760 5756 5752 5748 5743 5739 5735 5730 5725 5720 5715 5710 5705 5699
5781 5784 5786 5787 5788 5789 5790 5790 5789 5788 5788 5788 5789 5790 5790 5789 5788 5786 5785 5783 5781 5779 5777 5774 5771 5768 5765 5762 5758 5755 5751 5747 5742 5738 5734 5729 5724 5719 5714 5709 5703 5697 5692 5686
5774 5777 5779 5781 5782 5782 5783 5783 5783 5782 5782 5782 5782 5786 5784 5782 5780 5779 5778 5776 5774 5772 5769 5766 5763 5760 5757 5753 5749 5746 5742 5737 5733 5728 5723 5718 5713 5707 5702 5696 5690 5684 5678 5672
5767 5769 5771 5774 5775 5775 5775 5777 5776 5777 5776 5774 5774 5780 5777 5774 5772 5771 5770 5768 5767 5764 5762 5758 5755 5752 5748 5744 5740 5736 5732 5727 5722 5717 5712 5707 5701 5695 5689 5683 5677 5670 5664 5657
5760 5762 5764 5766 5769 5769 5769 5770 5769 5769 5768 5767 5767 5772 5769 5767 5764 5763 5762 5761 5758 5756 5753 5750 5746 5743 5739 5735 5731 5726 5721 5716 5711 5706 5700 5695 5689 5683 5676 5670 5663 5656 5649 5641
5753 5755 5758 5760 5761 5761 5762 5763 5762 5761 5761 5761 5761 5763 5762 5758 5756 5755 5754 5752 5750 5747 5744 5741 5737 5734 5730 5725 5721 5716 5711 5706 5700 5694 5688 5682 5676 5670 5663 5656 5649 5641 5633 5625
5746 5748 5750 5752 5752 5753 5754 5755 5755 5754 5754 5753 5754 5754 5754 5750 5748 5746 5745 5743 5740 5737 5734 5731 5727 5724 5719 5715 5710 5705 5700 5694 5688 5682 5676 5670 5663 5656 5649 5641 5633 5625 5617 5608
5739 5741 5743 5744 5745 5744 5746 5748 5748 5747 5746 5745 5745 5746 5745 5741 5739 5738 5736 5733 5731 5728 5725 5721 5717 5713 5709 5704 5699 5694 5688 5682 5676 5670 5663 5656 5649 5642 5634 5626 5618 5610 5601 5592
5732 5734 5735 5737 5737 5736 5738 5741 5740 5739 5739 5738 5737 5738 5736 5733 5731 5729 5727 5724 5721 5718 5715 5711 5707 5702 5698 5693 5687 5682 5676 5670 5663 5657 5650 5643 5635 5628 5619 5611 5602 5594 5585 5575
5725 5726 5727 5728 5729 5728 5735 5733 5732 5731 5731 5730 5729 5728 5726 5725 5722 5720 5718 5714 5711 5708 5704 5700 5696 5691 5686 5681 5675 5669 5663 5657 5650 5643 5636 5628 5621 5613 5604 5595 5586 5577 5567 5558
5718 5718 5719 5720 5720 5721 5726 5725 5723 5722 5723 5723 5720 5719 5717 5715 5713 5711 5708 5705 5701 5697 5693 5689 5684 5679 5674 5668 5663 5657 5651 5644 5637 5629 5622 5614 5605 5597 5588 5579 5569 5559 5550 5540
5709 5710 5712 5712 5711 5713 5719 5717 5714 5714 5715 5714 5712 5710 5708 5706 5704 5702 5698 5694 5690 5686 5682 5677 5672 5667 5662 5656 5650 5644 5637 5630 5623 5615 5607 5598 5589 5580 5571 5562 5552 5542 5531 5521
5702 5702 5703 5704 5703 5704 5709 5707 5706 5707 5707 5704 5702 5700 5698 5696 5694 5691 5687 5683 5679 5675 5670 5665 5660 5655 5649 5643 5637 5630 5623 5616 5608 5600 5592 5583 5573 5564 5554 5544 5534 5523 5513 5502
5693 5694 5695 5695 5695 5699 5698 5697 5697 5696 5695 5693 5692 5690 5688 5686 5682 5679 5675 5671 5667 5663 5658 5653 5648 5642 5636 5629 5623 5617 5609 5602 5594 5585 5577 5567 5557 5547 5536 5526 5515 5504 5492 5481
5685 5687 5687 5688 5690 5690 5688 5687 5686 5685 5685 5683 5681 5680 5677 5674 5671 5667 5663 5659 5655 5650 5646 5640 5635 5629 5622 5615 5609 5602 5594 5586 5578 5570 5560 5550 5540 5530 5518 5507 5496 5485 5472 5460
5676 5677 5678 5679 5680 5679 5678 5677 5676 5675 5674 5672 5670 5668 5666 5662 5659 5655 5651 5647 5642 5638 5633 5627 5621 5615 5609 5601 5594 5587 5579 5571 5562 5553 5544 5534 5523 5513 5501 5489 5477 5464 5452 5440
5668 5668 5668 5669 5670 5669 5669 5667 5666 5665 5663 5661 5659 5657 5653 5650 5647 5643 5639 5634 5629 5624 5619 5613 5608 5601 5595 5587 5579 5571 5563 5555 5546 5537 5527 5516 5506 5494 5483 5472 5459 5445 5434 5419
5659 5659 5659 5660 5660 5659 5659 5658 5656 5654 5652 5650 5648 5645 5641 5638 5634 5630 5626 5621 5616 5611 5605 5600 5594 5587 5580 5572 5564 5556 5547 5538 5529 5520 5510 5499 5488 5476 5464 5453 5443 5430 5415 5403